Home > Weather > Holon > Past weeks

Flag for Israel Weather for the Past 2 Weeks in Holon, Israel

Now
61 °F

Clear.


Feels Like: 61 °F
Forecast: 61 / 74 °F
Wind: 5 mph from Northeast

Location: Dov Airport

Current Time: Feb 14, 2016 at 9:52:23 PM

Latest Report: Feb 14, 2016 at 8:50 PM


Visibility: 4 mi

Pressure: 30.15 "Hg

Humidity: 88%

Dew point: 57 °F

Location of HolonLocation

Historic Weather in Holon — Graph

°F

Holon Temperature Yesterday

Maximum temperature yesterday: 66 °F (at 2:50 PM)
Minimum temperature yesterday: 52 °F (at 6:00 AM)
Average temperature yesterday: 60 °F

High & Low Weather Summary for the Past Weeks

 TemperatureHumidityPressure
High75 °F (Feb 4, 12:50 PM)94% (Feb 8, 6:50 AM)30.33 "Hg (Feb 8, 6:50 AM)
Low45 °F (Jan 31, 5:50 AM)22% (Feb 4, 12:50 PM)29.89 "Hg (Feb 7, 5:50 AM)
Average59 °F68%30.13 "Hg
* Reported Jan 30 8:50 PM — Feb 14 8:50 PM, Holon, Weather by CustomWeather, © 2016

Note: Actual official high and low records may vary slightly from our data, if they occured in-between our weather recording intervals... More about our weather records

Advertising

Holon Weather History for the Previous 24 Hours

 ConditionsComfort  
Time TempWeatherWind HumidityBarometerVisibility
8:50 PM
Sun, Feb 14
61 °FClear.5 mph88%30.15 "Hg4 mi
7:50 PM61 °FClear.3 mph88%30.15 "Hg4 mi
6:50 PM61 °FFog.5 mph94%30.12 "Hg3 mi
5:50 PM63 °FClear.5 mph88%30.12 "Hg10 mi
4:50 PM64 °FSunny.6 mph83%30.09 "Hg10 mi
3:50 PM66 °FSunny.6 mph78%30.09 "Hg10 mi
2:50 PM66 °FSunny.5 mph73%30.09 "Hg10 mi
1:50 PM66 °FSunny.5 mph73%30.09 "Hg10 mi
12:50 PM64 °FSunny.6 mph73%30.12 "Hg10 mi
11:50 AM64 °FPassing clouds.6 mph73%30.12 "HgN/A
10:50 AM63 °FSunny.7 mph77%30.12 "Hg10 mi
9:50 AM63 °FSunny.3 mph68%30.12 "Hg10 mi
8:50 AM61 °FSunny.2 mph68%30.12 "Hg10 mi
7:50 AM55 °FSunny.5 mph82%30.12 "Hg10 mi
6:50 AM52 °FSunny.5 mph88%30.12 "Hg10 mi
5:50 AM54 °FClear.6 mph82%30.09 "Hg6 mi
4:50 AM54 °FClear.5 mph88%30.09 "Hg6 mi
4:00 AM52 °FClear.5 mph94%30.09 "Hg6 mi
10:50 PM
Sat, Feb 13
57 °FClear.5 mph94%30.09 "Hg4 mi
9:50 PM59 °FClear.1 mph88%30.09 "Hg4 mi
Weather by CustomWeather, © 2016

See weather overviewHow to use our weather pages